Location: Hilton Head Island
(32.2163°N, 80.7526°W)
Time: 04:13:47
(UTC-05:00)

Vanguard 1 Rocket - Visible Passes

Search period start: 17 February 2026 00:00
Search period end: 27 February 2026 00:00
Orbit: 652 x 4215 km, 34.3° (Epoch: 15 February)

Date Brightness Start Highest point End Pass type
(mag) Time Alt. Az. Time Alt. Az. Time Alt. Az.
17 Feb 10.9 19:54:48 10° WNW 20:15:28 55° SW 20:39:57 10° SE visible
17 Feb 11.5 22:29:40 10° W 22:45:57 22° SW 22:57:53 14° SSW visible
18 Feb 10.7 18:40:41 10° WNW 18:59:16 69° SSW 19:25:22 10° SE visible
18 Feb 11.4 21:11:08 10° W 21:30:46 34° SW 21:50:54 11° SSE visible
19 Feb 11.1 19:55:25 10° WNW 20:15:03 48° SW 20:38:54 10° SSE visible
19 Feb 11.7 22:32:59 10° W 22:45:29 16° SW 22:57:49 10° SSW visible
20 Feb 10.9 18:41:12 10° WNW 18:59:05 61° SSW 19:24:39 10° SE visible
20 Feb 11.6 21:12:32 10° W 21:30:17 28° SW 21:49:23 10° S visible
21 Feb 11.3 19:56:15 10° W 20:14:41 40° SW 20:37:30 10° SSE visible
21 Feb 11.9 22:40:21 10° WSW 22:45:15 11° SW 22:50:09 10° SW visible
22 Feb 11.0 18:41:50 10° WNW 18:58:55 54° SSW 19:23:39 10° SE visible
22 Feb 11.8 21:14:38 10° W 21:29:56 22° SW 21:46:36 10° S visible
23 Feb 11.5 19:57:22 10° W 20:14:25 33° SW 20:35:40 10° SSE visible
24 Feb 11.2 18:42:36 10° W 18:58:48 46° SW 19:22:20 10° SSE visible
24 Feb 11.9 21:18:04 10° WSW 21:29:47 16° SW 21:42:29 10° SSW visible
25 Feb 11.7 19:58:57 10° W 20:14:15 26° SW 20:33:16 10° S visible
26 Feb 11.4 18:43:37 10° W 18:58:45 38° SW 19:20:39 10° SSE visible
26 Feb 12.1 21:26:03 10° SW 21:29:54 11° SW 21:33:51 10° SW visible
